AFL1730 UUEE-UHPP

Flight info

Callsign AFL1730
Flight time 7h 39m
Altitude 33000
Route RILPO3H RILPO T753 TUNOB T791 TOVGI/K0915F350 T791 BI M130 OSVOD B927 PESEK/K0902F370 B927 LUMAG A812 BAKEN BAKEN5N
Aircraft B77W/H-SDE1E2E3FGHIJ2J3J4J5M1RWXY/LB1D1

Departure

Time 2026-04-26 08:36
Airport Sheremetyevo International Airport (UUEE)

Arrival

Time 2026-04-26 16:16
Airport Yelizovo Airport (UHPP)
Time Latitude Longitude Altitude Speed Heading
2026-04-26 08:08 55.97925 37.41922 644 ft 0 kts 255°
2026-04-26 08:24 55.97925 37.41923 644 ft 2 kts 255°
2026-04-26 08:24 55.97932 37.41964 648 ft 4 kts 243°
2026-04-26 08:25 55.97945 37.41998 649 ft 4 kts 214°
2026-04-26 08:25 55.97958 37.42009 647 ft 3 kts 169°
2026-04-26 08:25 55.97962 37.42008 646 ft 0 kts 165°
2026-04-26 08:28 55.97948 37.42015 652 ft 5 kts 165°
2026-04-26 08:28 55.97895 37.42041 647 ft 10 kts 165°
2026-04-26 08:29 55.97825 37.42074 649 ft 10 kts 165°
2026-04-26 08:29 55.97754 37.42108 646 ft 10 kts 165°
2026-04-26 08:29 55.97709 37.42130 647 ft 6 kts 160°
2026-04-26 08:29 55.97690 37.42197 650 ft 6 kts 92°
2026-04-26 08:30 55.97699 37.42284 646 ft 9 kts 75°
2026-04-26 08:30 55.97719 37.42408 646 ft 12 kts 75°
2026-04-26 08:30 55.97743 37.42573 644 ft 15 kts 75°
2026-04-26 08:30 55.97771 37.42759 644 ft 16 kts 75°
2026-04-26 08:31 55.97798 37.42946 646 ft 16 kts 75°
2026-04-26 08:31 55.97817 37.43069 644 ft 16 kts 75°
2026-04-26 08:31 55.97845 37.43255 648 ft 16 kts 75°
2026-04-26 08:31 55.97873 37.43441 648 ft 16 kts 75°
2026-04-26 08:32 55.97901 37.43625 645 ft 15 kts 75°
2026-04-26 08:32 55.97926 37.43793 648 ft 11 kts 75°
2026-04-26 08:32 55.97940 37.43891 646 ft 7 kts 75°
2026-04-26 08:32 55.97950 37.43965 648 ft 6 kts 84°
2026-04-26 08:33 55.97930 37.44020 648 ft 6 kts 146°
2026-04-26 08:33 55.97894 37.44048 648 ft 6 kts 162°
2026-04-26 08:33 55.97857 37.44066 646 ft 6 kts 165°
2026-04-26 08:33 55.97821 37.44083 647 ft 5 kts 167°
2026-04-26 08:34 55.97793 37.44059 651 ft 5 kts 231°
2026-04-26 08:34 55.97779 37.44008 649 ft 4 kts 253°
2026-04-26 08:34 55.97775 37.43982 647 ft 0 kts 255°
2026-04-26 08:34 55.97775 37.43980 647 ft 1 kts 255°
2026-04-26 08:35 55.97752 37.43827 650 ft 31 kts 255°
2026-04-26 08:35 55.97632 37.43029 648 ft 100 kts 255°
2026-04-26 08:35 55.97401 37.41478 650 ft 157 kts 255°
2026-04-26 08:35 55.97082 37.39366 677 ft 194 kts 254°
2026-04-26 08:36 55.96731 37.37040 1172 ft 196 kts 253°
2026-04-26 08:36 55.96364 37.34680 1842 ft 192 kts 252°
2026-04-26 08:36 55.95996 37.32409 2449 ft 193 kts 252°
2026-04-26 08:36 55.95629 37.30092 2962 ft 193 kts 253°
2026-04-26 08:37 55.95272 37.27812 3570 ft 189 kts 253°
2026-04-26 08:37 55.94924 37.25550 4102 ft 190 kts 252°
2026-04-26 08:37 55.94546 37.23196 4360 ft 205 kts 252°
2026-04-26 08:37 55.94124 37.20645 4538 ft 225 kts 252°
2026-04-26 08:38 55.93682 37.17869 4845 ft 239 kts 253°
2026-04-26 08:38 55.93233 37.14974 5399 ft 245 kts 252°
2026-04-26 08:38 55.92771 37.12027 6040 ft 249 kts 252°
2026-04-26 08:38 55.92300 37.09041 6615 ft 252 kts 252°
2026-04-26 08:39 55.91821 37.06009 7260 ft 254 kts 252°
2026-04-26 08:39 55.91606 37.02887 7735 ft 262 kts 275°
2026-04-26 08:39 55.92249 36.99809 8326 ft 273 kts 299°
2026-04-26 08:39 55.93565 36.97325 8905 ft 281 kts 320°
2026-04-26 08:40 55.95199 36.95331 9380 ft 288 kts 321°
2026-04-26 08:40 55.96867 36.93309 9955 ft 290 kts 322°
2026-04-26 08:40 55.98731 36.91842 10403 ft 305 kts 346°
2026-04-26 08:40 56.00926 36.92056 10536 ft 333 kts 18°
2026-04-26 08:41 56.02988 36.94119 10847 ft 347 kts 34°
2026-04-26 08:41 56.04986 36.96636 11378 ft 356 kts 33°
2026-04-26 08:41 56.07050 36.99139 12108 ft 360 kts 32°
2026-04-26 08:41 56.09153 37.01627 12899 ft 364 kts 32°
2026-04-26 08:42 56.11146 37.04420 13460 ft 370 kts 49°
2026-04-26 08:42 56.12461 37.08394 14000 ft 374 kts 74°
2026-04-26 08:42 56.13122 37.12872 14635 ft 374 kts 79°
2026-04-26 08:42 56.13729 37.17451 15289 ft 380 kts 79°
2026-04-26 08:43 56.14356 37.22074 15995 ft 384 kts 79°
2026-04-26 08:43 56.15006 37.26734 16711 ft 388 kts 79°
2026-04-26 08:43 56.15674 37.31469 17461 ft 392 kts 78°
2026-04-26 08:43 56.16664 37.36045 17928 ft 401 kts 59°
2026-04-26 08:44 56.18296 37.40183 18392 ft 410 kts 54°
2026-04-26 08:44 56.19993 37.44333 18998 ft 414 kts 56°
2026-04-26 08:44 56.21653 37.48585 19624 ft 418 kts 57°
2026-04-26 08:44 56.23300 37.52916 20196 ft 423 kts 57°
2026-04-26 08:45 56.24965 37.57316 20727 ft 429 kts 57°
2026-04-26 08:45 56.26659 37.61773 21315 ft 434 kts 57°
2026-04-26 08:45 56.28375 37.66287 21896 ft 439 kts 57°
2026-04-26 08:45 56.30109 37.70850 22474 ft 444 kts 57°
2026-04-26 08:46 56.31992 37.75320 23014 ft 450 kts 50°
2026-04-26 08:46 56.34052 37.79596 23486 ft 455 kts 49°
2026-04-26 08:46 56.36140 37.83911 23974 ft 458 kts 50°
2026-04-26 08:46 56.38422 37.87884 24343 ft 460 kts 32°
2026-04-26 08:47 56.41256 37.90520 24754 ft 458 kts 14°
2026-04-26 08:47 56.44349 37.91635 25239 ft 449 kts 359°
2026-04-26 08:47 56.47482 37.91992 25666 ft 453 kts 357°
2026-04-26 08:47 56.50639 37.92299 26105 ft 458 kts 357°
2026-04-26 08:48 56.53795 37.92637 26561 ft 462 kts 358°
2026-04-26 08:48 56.57049 37.93035 27032 ft 465 kts 358°
2026-04-26 08:48 56.60247 37.93464 27472 ft 469 kts 359°
2026-04-26 08:48 56.63515 37.93914 27910 ft 473 kts 359°
2026-04-26 08:49 56.66795 37.94541 28255 ft 479 kts
2026-04-26 08:49 56.69964 37.96649 28493 ft 493 kts 28°
2026-04-26 08:49 56.72693 38.00442 28857 ft 494 kts 46°
2026-04-26 08:49 56.75108 38.04939 29257 ft 498 kts 47°
2026-04-26 08:50 56.77527 38.09492 29595 ft 502 kts 46°
2026-04-26 08:50 56.79976 38.14032 29945 ft 504 kts 46°
2026-04-26 08:50 56.82461 38.18554 30350 ft 504 kts 45°
2026-04-26 08:50 56.84957 38.23053 30740 ft 505 kts 45°
2026-04-26 08:51 56.90065 38.31914 31438 ft 508 kts 41°
2026-04-26 08:51 56.92756 38.36132 31767 ft 509 kts 39°
2026-04-26 08:51 56.95480 38.40289 32079 ft 511 kts 39°
2026-04-26 08:52 56.98218 38.44458 32349 ft 513 kts 39°
2026-04-26 08:52 57.03717 38.52956 32386 ft 517 kts 39°
2026-04-26 08:53 57.09137 38.61499 32387 ft 510 kts 40°
2026-04-26 08:53 57.14507 38.70028 32391 ft 509 kts 40°
2026-04-26 08:54 57.19864 38.78565 32395 ft 509 kts 40°
2026-04-26 08:54 57.25209 38.87108 32400 ft 509 kts 40°
2026-04-26 08:55 57.30560 38.95692 32407 ft 510 kts 40°
2026-04-26 08:55 57.35878 39.04260 32408 ft 511 kts 40°
2026-04-26 08:56 57.41235 39.12926 32405 ft 512 kts 40°
2026-04-26 08:56 57.46603 39.21642 32407 ft 512 kts 40°
2026-04-26 08:57 57.51968 39.30381 32410 ft 512 kts 40°
2026-04-26 08:57 57.57322 39.39124 32410 ft 511 kts 40°
2026-04-26 08:58 57.62632 39.47832 32415 ft 510 kts 40°
2026-04-26 08:58 57.67987 39.56649 32421 ft 510 kts 41°
2026-04-26 08:59 57.73258 39.65367 32423 ft 508 kts 41°
2026-04-26 08:59 57.78575 39.74196 32447 ft 516 kts 41°
2026-04-26 09:00 57.83995 39.83231 32442 ft 527 kts 41°
2026-04-26 09:00 57.89523 39.92496 32444 ft 536 kts 41°
2026-04-26 09:01 57.95097 40.01935 32449 ft 540 kts 41°
2026-04-26 09:01 58.00671 40.11428 32444 ft 540 kts 41°
2026-04-26 09:02 58.06238 40.20940 32436 ft 539 kts 41°
2026-04-26 09:02 58.11781 40.30449 32444 ft 536 kts 41°
2026-04-26 09:03 58.17289 40.39936 32445 ft 535 kts 41°
2026-04-26 09:03 58.22802 40.49381 32446 ft 534 kts 41°
2026-04-26 09:04 58.28317 40.58817 32450 ft 533 kts 41°
2026-04-26 09:04 58.33825 40.68292 32456 ft 533 kts 41°
2026-04-26 09:05 58.39316 40.77795 32450 ft 533 kts 41°
2026-04-26 09:05 58.44796 40.87324 32449 ft 533 kts 41°
2026-04-26 09:06 58.50269 40.96882 32458 ft 533 kts 42°
2026-04-26 09:06 58.55705 41.06417 32451 ft 533 kts 42°
2026-04-26 09:07 58.61163 41.16031 32456 ft 533 kts 42°
2026-04-26 09:07 58.66615 41.25678 32457 ft 533 kts 42°
2026-04-26 09:08 58.72055 41.35347 32463 ft 532 kts 42°
2026-04-26 09:08 58.77528 41.44950 32462 ft 532 kts 38°
2026-04-26 09:09 58.83434 41.53522 32471 ft 531 kts 34°
2026-04-26 09:09 58.89423 41.61879 32470 ft 531 kts 34°
2026-04-26 09:10 58.95394 41.70334 32469 ft 532 kts 35°
2026-04-26 09:10 59.01333 41.78867 32479 ft 532 kts 35°
2026-04-26 09:11 59.07280 41.87470 32484 ft 533 kts 35°
2026-04-26 09:11 59.13218 41.96087 32486 ft 533 kts 35°
2026-04-26 09:12 59.19163 42.04749 32495 ft 533 kts 35°
2026-04-26 09:12 59.25099 42.13436 32506 ft 533 kts 36°
2026-04-26 09:13 59.30992 42.22100 32497 ft 533 kts 36°
2026-04-26 09:13 59.36904 42.30896 32507 ft 533 kts 38°
2026-04-26 09:14 59.42227 42.40990 32512 ft 533 kts 47°
2026-04-26 09:14 59.47143 42.51893 32523 ft 532 kts 48°
2026-04-26 09:15 59.52055 42.62800 32521 ft 532 kts 47°
2026-04-26 09:15 59.57001 42.73670 32528 ft 532 kts 47°
2026-04-26 09:16 59.61947 42.84544 32543 ft 532 kts 47°
2026-04-26 09:16 59.66867 42.95424 32542 ft 532 kts 47°
2026-04-26 09:17 59.71759 43.06305 32549 ft 532 kts 47°
2026-04-26 09:17 59.76696 43.17332 32562 ft 532 kts 47°
2026-04-26 09:18 59.81571 43.28257 32554 ft 532 kts 47°
2026-04-26 09:18 59.86462 43.39268 32564 ft 532 kts 47°
2026-04-26 09:19 59.91347 43.50321 32580 ft 532 kts 47°
2026-04-26 09:19 59.96228 43.61413 32592 ft 531 kts 47°
2026-04-26 09:20 60.00277 43.70635 32593 ft 531 kts 47°
2026-04-26 09:20 60.05147 43.81764 32601 ft 531 kts 47°
2026-04-26 09:21 60.10004 43.92918 32592 ft 531 kts 47°
2026-04-26 09:21 60.14851 44.04109 32608 ft 531 kts 47°
2026-04-26 09:22 60.19681 44.15318 32608 ft 530 kts 48°
2026-04-26 09:22 60.24497 44.26549 32625 ft 529 kts 48°
2026-04-26 09:23 60.29260 44.37710 32622 ft 528 kts 48°
2026-04-26 09:23 60.34035 44.48954 32632 ft 527 kts 48°
2026-04-26 09:24 60.38791 44.60208 32636 ft 526 kts 48°
2026-04-26 09:24 60.43532 44.71482 32644 ft 526 kts 48°
2026-04-26 09:25 60.48258 44.82775 32658 ft 525 kts 48°
2026-04-26 09:25 60.52967 44.94087 32652 ft 524 kts 48°
2026-04-26 09:26 60.57664 45.05423 32660 ft 524 kts 48°
2026-04-26 09:26 60.62345 45.16770 32666 ft 524 kts 49°
2026-04-26 09:27 60.67006 45.28178 32653 ft 523 kts 49°
2026-04-26 09:27 60.71653 45.39631 32651 ft 523 kts 49°
2026-04-26 09:28 60.76271 45.51013 32657 ft 523 kts 49°
2026-04-26 09:28 60.80932 45.62436 32672 ft 523 kts 49°
2026-04-26 09:29 60.85583 45.73887 32670 ft 523 kts 49°
2026-04-26 09:29 60.90224 45.85389 32675 ft 523 kts 49°
2026-04-26 09:30 60.94849 45.96918 32682 ft 522 kts 49°
2026-04-26 09:30 60.99463 46.08477 32681 ft 522 kts 49°
2026-04-26 09:31 61.04069 46.20063 32679 ft 522 kts 49°
2026-04-26 09:31 61.08620 46.31729 32687 ft 522 kts 50°
2026-04-26 09:32 61.13143 46.43476 32682 ft 521 kts 50°
2026-04-26 09:32 61.17651 46.55212 32687 ft 521 kts 50°
2026-04-26 09:33 61.22154 46.66976 32698 ft 520 kts 50°
2026-04-26 09:33 61.26616 46.78706 32691 ft 520 kts 50°
2026-04-26 09:34 61.31084 46.90545 32690 ft 520 kts 50°
2026-04-26 09:34 61.35535 47.02397 32699 ft 519 kts 51°
2026-04-26 09:35 61.39972 47.14265 32698 ft 519 kts 51°
2026-04-26 09:35 61.44408 47.26184 32703 ft 519 kts 51°
2026-04-26 09:36 61.48831 47.38105 32702 ft 518 kts 51°
2026-04-26 09:36 61.53242 47.50045 32703 ft 518 kts 51°
2026-04-26 09:37 61.57619 47.62030 32706 ft 518 kts 51°
2026-04-26 09:37 61.61981 47.74075 32709 ft 517 kts 51°
2026-04-26 09:38 61.66329 47.86140 32706 ft 517 kts 51°
2026-04-26 09:38 61.70659 47.98208 32707 ft 517 kts 51°
2026-04-26 09:39 61.74956 48.10244 32706 ft 516 kts 51°
2026-04-26 09:39 61.79258 48.22358 32710 ft 516 kts 52°
2026-04-26 09:40 61.83558 48.34532 32705 ft 515 kts 52°
2026-04-26 09:40 61.87840 48.46717 32701 ft 515 kts 52°
2026-04-26 09:41 61.92104 48.58918 32704 ft 515 kts 52°
2026-04-26 09:41 61.96357 48.71154 32704 ft 515 kts 52°
2026-04-26 09:42 62.00593 48.83405 32707 ft 514 kts 52°
2026-04-26 09:42 62.04822 48.95701 32704 ft 514 kts 52°
2026-04-26 09:43 62.09036 49.08013 32704 ft 514 kts 52°
2026-04-26 09:43 62.13237 49.20338 32708 ft 513 kts 52°
2026-04-26 09:44 62.17444 49.32684 32707 ft 513 kts 52°
2026-04-26 09:44 62.21632 49.45033 32707 ft 512 kts 53°
2026-04-26 09:45 62.25805 49.57415 32710 ft 512 kts 53°
2026-04-26 09:45 62.29966 49.69830 32705 ft 512 kts 53°
2026-04-26 09:46 62.34082 49.82182 32699 ft 511 kts 53°
2026-04-26 09:46 62.38211 49.94636 32702 ft 511 kts 53°
2026-04-26 09:47 62.42326 50.07118 32701 ft 510 kts 53°
2026-04-26 09:47 62.46425 50.19619 32702 ft 510 kts 53°
2026-04-26 09:48 62.50515 50.32162 32707 ft 510 kts 53°
2026-04-26 09:48 62.54591 50.44723 32702 ft 510 kts 54°
2026-04-26 09:49 62.58680 50.57290 32705 ft 510 kts 53°
2026-04-26 09:49 62.62777 50.69842 32704 ft 509 kts 53°
2026-04-26 09:50 62.66853 50.82417 32706 ft 509 kts 54°
2026-04-26 09:50 62.70919 50.95049 32707 ft 509 kts 54°
2026-04-26 09:51 62.74973 51.07711 32698 ft 508 kts 54°
2026-04-26 09:51 62.78999 51.20407 32698 ft 508 kts 54°
2026-04-26 09:52 62.83003 51.33122 32698 ft 508 kts 54°
2026-04-26 09:52 62.88989 51.52256 32701 ft 507 kts 55°
2026-04-26 09:53 62.92962 51.65037 32697 ft 507 kts 55°
2026-04-26 09:53 62.96918 51.77838 32702 ft 507 kts 55°
2026-04-26 09:54 63.00865 51.90683 32702 ft 506 kts 55°
2026-04-26 09:54 63.04802 52.03567 32691 ft 506 kts 55°
2026-04-26 09:55 63.08723 52.16472 32693 ft 506 kts 55°
2026-04-26 09:55 63.12632 52.29409 32691 ft 506 kts 55°
2026-04-26 09:56 63.16504 52.42294 32691 ft 507 kts 56°
2026-04-26 09:56 63.20390 52.55344 32691 ft 507 kts 56°
2026-04-26 09:57 63.24244 52.68449 32686 ft 507 kts 56°
2026-04-26 09:57 63.28083 52.81577 32688 ft 507 kts 56°
2026-04-26 09:58 63.31914 52.94745 32686 ft 507 kts 56°
2026-04-26 09:58 63.35732 53.07938 32680 ft 507 kts 56°
2026-04-26 09:59 63.38900 53.18939 32679 ft 507 kts 56°
2026-04-26 09:59 63.43314 53.34365 32676 ft 507 kts 57°
2026-04-26 10:00 63.47093 53.47658 32660 ft 507 kts 57°
2026-04-26 10:00 63.50865 53.60996 32677 ft 506 kts 57°
2026-04-26 10:01 63.54681 53.74239 32669 ft 506 kts 52°
2026-04-26 10:01 63.59285 53.86105 32671 ft 504 kts 41°
2026-04-26 10:02 63.64535 53.96519 32676 ft 503 kts 39°
2026-04-26 10:02 63.69830 54.06857 32668 ft 504 kts 40°
2026-04-26 10:03 63.75086 54.17303 32667 ft 504 kts 40°
2026-04-26 10:03 63.80324 54.27852 32665 ft 504 kts 40°
2026-04-26 10:04 63.85549 54.38442 32662 ft 504 kts 40°
2026-04-26 10:04 63.90765 54.49061 32662 ft 503 kts 40°
2026-04-26 10:05 63.95937 54.59640 32661 ft 503 kts 41°
2026-04-26 10:05 64.01163 54.70387 32660 ft 502 kts 41°
2026-04-26 10:06 64.06303 54.81009 32660 ft 502 kts 41°
2026-04-26 10:06 64.11474 54.91750 32661 ft 502 kts 41°
2026-04-26 10:07 64.16634 55.02530 32660 ft 502 kts 41°
2026-04-26 10:07 64.20948 55.11584 32660 ft 502 kts 41°
2026-04-26 10:08 64.26920 55.24187 32659 ft 501 kts 41°
2026-04-26 10:08 64.32050 55.35075 32666 ft 502 kts 41°
2026-04-26 10:09 64.36311 55.44162 32666 ft 502 kts 41°
2026-04-26 10:09 64.41428 55.55125 32666 ft 502 kts 42°
2026-04-26 10:10 64.46538 55.66138 32663 ft 502 kts 42°
2026-04-26 10:10 64.51637 55.77182 32665 ft 502 kts 42°
2026-04-26 10:11 64.56736 55.88285 32660 ft 502 kts 42°
2026-04-26 10:11 64.59264 55.93808 31107 ft 495 kts 43°
2026-04-26 10:11 64.61762 55.99282 31343 ft 493 kts 43°
2026-04-26 10:12 64.64253 56.04759 31600 ft 493 kts 43°
2026-04-26 10:12 64.66746 56.10255 31863 ft 492 kts 43°
2026-04-26 10:12 64.69233 56.15751 32116 ft 492 kts 43°
2026-04-26 10:12 64.71718 56.21260 32350 ft 492 kts 43°
2026-04-26 10:13 64.74198 56.26772 32598 ft 492 kts 43°
2026-04-26 10:13 64.76676 56.32292 32786 ft 492 kts 44°
2026-04-26 10:13 64.79169 56.37860 32898 ft 495 kts 44°
2026-04-26 10:13 64.81668 56.43456 32947 ft 498 kts 44°
2026-04-26 10:14 64.86660 56.54675 33002 ft 502 kts 44°
2026-04-26 10:14 64.91693 56.66094 33003 ft 503 kts 44°
2026-04-26 10:15 64.96718 56.77576 32998 ft 501 kts 44°
2026-04-26 10:15 65.01703 56.89023 34665 ft 500 kts 44°
2026-04-26 10:16 65.04220 56.94824 34415 ft 508 kts 44°
2026-04-26 10:16 65.06757 57.00685 34202 ft 511 kts 44°
2026-04-26 10:16 65.09302 57.06582 33971 ft 511 kts 44°
2026-04-26 10:16 65.11835 57.12471 33758 ft 510 kts 45°
2026-04-26 10:17 65.14337 57.18435 33519 ft 510 kts 46°
2026-04-26 10:17 65.16792 57.24518 33250 ft 508 kts 47°
2026-04-26 10:17 65.19208 57.30608 32988 ft 507 kts 47°
2026-04-26 10:17 65.21622 57.36719 32817 ft 504 kts 47°
2026-04-26 10:18 65.24016 57.42767 32705 ft 499 kts 47°
2026-04-26 10:18 65.26399 57.48775 32650 ft 498 kts 47°
2026-04-26 10:18 65.31178 57.60831 32629 ft 502 kts 47°
2026-04-26 10:19 65.36009 57.73076 32613 ft 507 kts 47°
2026-04-26 10:19 65.40840 57.85399 32614 ft 508 kts 47°
2026-04-26 10:20 65.45668 57.97782 32601 ft 507 kts 47°
2026-04-26 10:20 65.50441 58.10096 32593 ft 506 kts 47°
2026-04-26 10:21 65.55226 58.22514 32590 ft 505 kts 47°
2026-04-26 10:21 65.59991 58.34950 32591 ft 504 kts 48°
2026-04-26 10:22 65.64741 58.47419 32576 ft 503 kts 48°
2026-04-26 10:22 65.69480 58.59934 32572 ft 504 kts 48°
2026-04-26 10:23 65.74210 58.72496 32587 ft 503 kts 48°
2026-04-26 10:23 65.78927 58.85098 32583 ft 503 kts 48°
2026-04-26 10:24 65.83633 58.97744 32580 ft 503 kts 49°
2026-04-26 10:24 65.88327 59.10434 32561 ft 504 kts 49°
2026-04-26 10:25 65.93012 59.23174 32573 ft 504 kts 49°
2026-04-26 10:25 65.97693 59.35979 32566 ft 504 kts 49°
2026-04-26 10:26 66.02358 59.48811 32569 ft 504 kts 49°
2026-04-26 10:26 66.07015 59.61712 32564 ft 504 kts 49°
2026-04-26 10:27 66.11641 59.74700 32566 ft 504 kts 50°
2026-04-26 10:27 66.16255 59.87741 32561 ft 504 kts 50°
2026-04-26 10:28 66.20866 60.00838 32558 ft 504 kts 50°
2026-04-26 10:28 66.25435 60.13887 32559 ft 505 kts 50°
2026-04-26 10:29 66.30026 60.27073 32559 ft 505 kts 50°
2026-04-26 10:29 66.34607 60.40321 32560 ft 505 kts 50°
2026-04-26 10:30 66.39171 60.53604 32555 ft 505 kts 51°
2026-04-26 10:30 66.43730 60.66943 32555 ft 505 kts 51°
2026-04-26 10:31 66.48275 60.80323 32554 ft 505 kts 51°
2026-04-26 10:31 66.52810 60.93770 32555 ft 505 kts 51°
2026-04-26 10:32 66.57331 61.07256 32555 ft 505 kts 51°
2026-04-26 10:32 66.61844 61.20803 32557 ft 505 kts 51°
2026-04-26 10:33 66.66342 61.34387 32556 ft 505 kts 51°
2026-04-26 10:33 66.70828 61.48022 32558 ft 505 kts 52°
2026-04-26 10:34 66.75301 61.61701 32560 ft 505 kts 52°
2026-04-26 10:34 66.79772 61.75461 32564 ft 505 kts 52°
2026-04-26 10:35 66.84224 61.89250 32560 ft 505 kts 52°
2026-04-26 10:35 66.88668 62.03100 32560 ft 505 kts 52°
2026-04-26 10:36 66.93107 62.17025 32560 ft 505 kts 52°
2026-04-26 10:36 66.97524 62.30969 32565 ft 505 kts 52°
2026-04-26 10:37 67.01911 62.44903 32561 ft 506 kts 52°
2026-04-26 10:37 67.06338 62.59039 32561 ft 506 kts 52°
2026-04-26 10:38 67.10717 62.73025 32565 ft 506 kts 53°
2026-04-26 10:38 67.15114 62.87139 32568 ft 506 kts 53°
2026-04-26 10:39 67.19500 63.01322 32568 ft 506 kts 53°
2026-04-26 10:39 67.23867 63.15542 32571 ft 506 kts 53°
2026-04-26 10:40 67.28230 63.29842 32570 ft 506 kts 53°
2026-04-26 10:40 67.32576 63.44183 32573 ft 506 kts 53°
2026-04-26 10:41 67.36911 63.58579 32568 ft 506 kts 53°
2026-04-26 10:41 67.41233 63.73028 32571 ft 506 kts 53°
2026-04-26 10:42 67.45542 63.87521 32567 ft 506 kts 54°
2026-04-26 10:42 67.49224 64.02960 32572 ft 503 kts 65°
2026-04-26 10:43 67.51798 64.19866 32576 ft 500 kts 73°
2026-04-26 10:43 67.53999 64.37127 32572 ft 501 kts 73°
2026-04-26 10:44 67.56224 64.54401 32569 ft 501 kts 73°
2026-04-26 10:44 67.58469 64.71672 32578 ft 501 kts 73°
2026-04-26 10:45 67.60701 64.88991 32579 ft 502 kts 73°
2026-04-26 10:45 67.62917 65.06350 32577 ft 502 kts 73°
2026-04-26 10:46 67.65127 65.23768 32577 ft 502 kts 73°
2026-04-26 10:46 67.67313 65.41175 32575 ft 502 kts 74°
2026-04-26 10:47 67.69482 65.58632 32574 ft 502 kts 74°
2026-04-26 10:47 67.71620 65.76001 32573 ft 502 kts 74°
2026-04-26 10:48 67.73758 65.93517 32583 ft 502 kts 74°
2026-04-26 10:48 67.75886 66.11068 32578 ft 502 kts 74°
2026-04-26 10:49 67.77995 66.28651 32582 ft 502 kts 75°
2026-04-26 10:49 67.80083 66.46259 32581 ft 502 kts 75°
2026-04-26 10:50 67.81819 66.61023 32597 ft 502 kts 75°
2026-04-26 10:50 67.84207 66.81550 32602 ft 502 kts 75°
2026-04-26 10:51 67.87264 67.08125 32598 ft 502 kts 75°
2026-04-26 10:52 67.89278 67.25881 32597 ft 502 kts 75°
2026-04-26 10:52 67.91274 67.43646 32600 ft 502 kts 75°
2026-04-26 10:53 67.93248 67.61472 32598 ft 503 kts 76°
2026-04-26 10:53 67.95198 67.79367 32594 ft 504 kts 76°
2026-04-26 10:54 67.97767 68.03260 32595 ft 505 kts 76°
2026-04-26 10:54 67.99679 68.21275 32592 ft 505 kts 76°
2026-04-26 10:55 68.01890 68.42368 32596 ft 505 kts 76°
2026-04-26 10:55 68.03447 68.57413 32598 ft 505 kts 76°
2026-04-26 10:56 68.05603 68.78488 32596 ft 505 kts 77°
2026-04-26 10:56 68.07137 68.93681 32601 ft 505 kts 77°
2026-04-26 10:57 68.08953 69.11866 32595 ft 505 kts 77°
2026-04-26 10:57 68.10746 69.30053 32599 ft 505 kts 77°
2026-04-26 10:58 68.12519 69.48263 32595 ft 505 kts 77°
2026-04-26 10:58 68.14272 69.66509 32601 ft 505 kts 77°
2026-04-26 10:59 68.16005 69.84775 32597 ft 505 kts 77°
2026-04-26 10:59 68.17709 70.02982 32598 ft 505 kts 78°
2026-04-26 11:00 68.19403 70.21319 32604 ft 506 kts 78°
2026-04-26 11:00 68.21079 70.39706 32606 ft 506 kts 78°
2026-04-26 11:01 68.22734 70.58112 32605 ft 506 kts 78°
2026-04-26 11:01 68.24367 70.76528 32603 ft 506 kts 78°
2026-04-26 11:02 68.25981 70.94987 32603 ft 506 kts 78°
2026-04-26 11:02 68.27579 71.13494 32603 ft 506 kts 78°
2026-04-26 11:03 68.29153 71.32003 32601 ft 506 kts 79°
2026-04-26 11:03 68.30707 71.50541 32605 ft 506 kts 79°
2026-04-26 11:04 68.32244 71.69126 32604 ft 506 kts 79°
2026-04-26 11:04 68.33759 71.87711 32602 ft 506 kts 79°
2026-04-26 11:05 68.35254 72.06324 32604 ft 506 kts 79°
2026-04-26 11:05 68.36730 72.24986 32603 ft 506 kts 79°
2026-04-26 11:06 68.38176 72.43557 32603 ft 507 kts 79°
2026-04-26 11:06 68.39620 72.62397 32600 ft 507 kts 80°
2026-04-26 11:07 68.41024 72.81017 32599 ft 507 kts 80°
2026-04-26 11:07 68.42419 72.99801 32600 ft 509 kts 80°
2026-04-26 11:08 68.43796 73.18654 32601 ft 507 kts 80°
2026-04-26 11:08 68.45146 73.37451 32596 ft 506 kts 81°
2026-04-26 11:09 68.46482 73.56259 32598 ft 506 kts 80°
2026-04-26 11:09 68.48363 73.74718 32608 ft 507 kts 73°
2026-04-26 11:10 68.50535 73.93046 32607 ft 509 kts 73°
2026-04-26 11:10 68.52691 74.11469 32593 ft 510 kts 73°
2026-04-26 11:11 68.54798 74.29985 32602 ft 511 kts 74°
2026-04-26 11:11 68.56876 74.48601 32599 ft 512 kts 74°
2026-04-26 11:12 68.58932 74.67255 32599 ft 513 kts 74°
2026-04-26 11:12 68.60973 74.85977 32596 ft 513 kts 75°
2026-04-26 11:13 68.62994 75.04735 32603 ft 513 kts 75°
2026-04-26 11:13 68.64995 75.23527 32603 ft 513 kts 75°
2026-04-26 11:14 68.66976 75.42362 32600 ft 513 kts 75°
2026-04-26 11:14 68.68935 75.61216 32605 ft 514 kts 75°
2026-04-26 11:15 68.70877 75.80151 32607 ft 514 kts 75°
2026-04-26 11:15 68.72798 75.99116 32608 ft 515 kts 76°
2026-04-26 11:16 68.74700 76.18138 32611 ft 515 kts 76°
2026-04-26 11:16 68.76572 76.37100 32610 ft 516 kts 76°
2026-04-26 11:17 68.78447 76.56356 32608 ft 516 kts 76°
2026-04-26 11:17 68.80278 76.75403 32613 ft 517 kts 76°
2026-04-26 11:18 68.82100 76.94609 32620 ft 517 kts 76°
2026-04-26 11:18 68.83903 77.13883 32617 ft 518 kts 76°
2026-04-26 11:19 68.85686 77.33205 32619 ft 518 kts 77°
2026-04-26 11:19 68.87449 77.52577 32623 ft 518 kts 77°
2026-04-26 11:20 68.88898 77.68712 32627 ft 519 kts 77°
2026-04-26 11:20 68.90912 77.91462 32629 ft 520 kts 77°
2026-04-26 11:21 68.92612 78.10971 32633 ft 520 kts 77°
2026-04-26 11:21 68.94292 78.30531 32639 ft 521 kts 77°
2026-04-26 11:22 68.95951 78.50138 32646 ft 521 kts 77°
2026-04-26 11:22 68.97590 78.69812 32665 ft 523 kts 78°
2026-04-26 11:23 68.98333 78.78829 32876 ft 524 kts 78°
2026-04-26 11:23 68.99123 78.88461 33215 ft 523 kts 78°
2026-04-26 11:23 68.99915 78.98194 33596 ft 521 kts 78°
2026-04-26 11:23 69.00714 79.08143 33926 ft 519 kts 78°
2026-04-26 11:24 69.01469 79.17848 34170 ft 518 kts 78°
2026-04-26 11:24 69.02220 79.27693 34408 ft 518 kts 79°
2026-04-26 11:24 69.02964 79.37543 34569 ft 519 kts 79°
2026-04-26 11:24 69.03708 79.47434 34613 ft 521 kts 79°
2026-04-26 11:25 69.05189 79.67235 34652 ft 519 kts 79°
2026-04-26 11:25 69.06645 79.86995 34664 ft 518 kts 79°
2026-04-26 11:26 69.08087 80.06733 34645 ft 520 kts 81°
2026-04-26 11:26 69.09528 80.26753 34665 ft 528 kts 81°
2026-04-26 11:27 69.10959 80.46992 34667 ft 530 kts 81°
2026-04-26 11:27 69.12371 80.67333 34669 ft 531 kts 81°
2026-04-26 11:28 69.13755 80.87648 34669 ft 530 kts 82°
2026-04-26 11:28 69.15115 81.07984 34669 ft 529 kts 82°
2026-04-26 11:29 69.16436 81.28131 34676 ft 528 kts 82°
2026-04-26 11:29 69.17739 81.48382 34679 ft 527 kts 82°
2026-04-26 11:30 69.18814 81.65397 34687 ft 527 kts 82°
2026-04-26 11:30 69.20274 81.88965 34692 ft 527 kts 82°
2026-04-26 11:31 69.21506 82.09306 34702 ft 527 kts 83°
2026-04-26 11:31 69.22716 82.29689 34706 ft 528 kts 83°
2026-04-26 11:32 69.23902 82.50113 34707 ft 529 kts 83°
2026-04-26 11:32 69.25068 82.70621 34717 ft 529 kts 83°
2026-04-26 11:33 69.26211 82.91169 34719 ft 530 kts 83°
2026-04-26 11:33 69.27329 83.11726 34719 ft 530 kts 83°
2026-04-26 11:34 69.28423 83.32327 34728 ft 531 kts 84°
2026-04-26 11:34 69.29494 83.52978 34730 ft 531 kts 84°
2026-04-26 11:35 69.30534 83.73508 34735 ft 531 kts 84°
2026-04-26 11:35 69.31391 83.90826 34736 ft 531 kts 84°
2026-04-26 11:36 69.32552 84.14880 34744 ft 531 kts 84°
2026-04-26 11:36 69.33524 84.35592 34745 ft 531 kts 84°
2026-04-26 11:37 69.34471 84.56334 34748 ft 531 kts 85°
2026-04-26 11:37 69.35395 84.77116 34754 ft 531 kts 85°
2026-04-26 11:38 69.36295 84.97922 34761 ft 531 kts 85°
2026-04-26 11:38 69.37169 85.18736 34765 ft 531 kts 85°
2026-04-26 11:39 69.38017 85.39548 34770 ft 531 kts 85°
2026-04-26 11:39 69.38837 85.60285 34769 ft 532 kts 86°
2026-04-26 11:40 69.39637 85.81155 34770 ft 532 kts 86°
2026-04-26 11:40 69.40416 86.02060 34773 ft 532 kts 86°
2026-04-26 11:42 69.35076 86.82746 34773 ft 523 kts 109°
2026-04-26 11:43 69.33112 87.02585 34768 ft 524 kts 109°
2026-04-26 11:43 69.31527 87.19265 34762 ft 526 kts 104°
2026-04-26 11:44 69.30778 87.39941 34777 ft 532 kts 93°
2026-04-26 11:44 69.31333 87.60690 34782 ft 534 kts 85°
2026-04-26 11:45 69.32243 87.81604 34774 ft 535 kts 85°
2026-04-26 11:45 69.33064 88.02545 34797 ft 535 kts 85°
2026-04-26 11:46 69.33813 88.23503 34814 ft 535 kts 86°
2026-04-26 11:46 69.34545 88.44443 34826 ft 534 kts 86°
2026-04-26 11:47 69.35267 88.65384 34832 ft 534 kts 86°
2026-04-26 11:47 69.35965 88.86206 34839 ft 534 kts 86°
2026-04-26 11:48 69.36640 89.07162 34845 ft 533 kts 86°
2026-04-26 11:48 69.37288 89.28105 34851 ft 533 kts 86°
2026-04-26 11:49 69.37909 89.49034 34854 ft 533 kts 86°
2026-04-26 11:49 69.38506 89.69995 34862 ft 533 kts 86°
2026-04-26 11:50 69.39077 89.90954 34864 ft 533 kts 87°
2026-04-26 11:50 69.39624 90.11945 34863 ft 533 kts 87°
2026-04-26 11:51 69.40146 90.32961 34868 ft 533 kts 87°
2026-04-26 11:51 69.40645 90.53987 34879 ft 533 kts 87°
2026-04-26 11:52 69.41127 90.74998 34876 ft 533 kts 87°
2026-04-26 11:52 69.41629 90.96019 34895 ft 533 kts 87°
2026-04-26 11:53 69.42118 91.17038 34903 ft 533 kts 87°
2026-04-26 11:54 69.42792 91.48437 34894 ft 533 kts 87°
2026-04-26 11:54 69.43208 91.69491 34911 ft 533 kts 87°
2026-04-26 11:55 69.43598 91.90555 34920 ft 533 kts 87°
2026-04-26 11:55 69.43963 92.11628 34928 ft 533 kts 88°
2026-04-26 11:56 69.44303 92.32697 34944 ft 533 kts 88°
2026-04-26 11:56 69.44617 92.53774 34947 ft 533 kts 88°
2026-04-26 11:57 69.44906 92.74868 34958 ft 533 kts 88°
2026-04-26 11:57 69.45169 92.95962 34960 ft 533 kts 88°
2026-04-26 11:58 69.45406 93.17037 34958 ft 533 kts 88°
2026-04-26 11:58 69.45619 93.38146 34973 ft 532 kts 88°
2026-04-26 11:59 69.45805 93.59235 34973 ft 533 kts 88°
2026-04-26 11:59 69.45967 93.80330 34967 ft 533 kts 89°
2026-04-26 12:00 69.46102 94.01277 34970 ft 533 kts 89°
2026-04-26 12:00 69.46212 94.22356 34978 ft 532 kts 89°
2026-04-26 12:01 69.46296 94.43455 34978 ft 533 kts 89°
2026-04-26 12:01 69.46356 94.64545 34988 ft 533 kts 89°
2026-04-26 12:02 69.46392 94.85654 34979 ft 533 kts 89°
2026-04-26 12:02 69.46398 95.06730 34992 ft 532 kts 89°
2026-04-26 12:03 69.46328 95.27802 34990 ft 532 kts 90°
2026-04-26 12:03 69.46219 95.48829 34993 ft 531 kts 90°
2026-04-26 12:04 69.46093 95.69849 35001 ft 531 kts 90°
2026-04-26 12:04 69.45947 95.90864 35001 ft 530 kts 90°
2026-04-26 12:05 69.45777 96.11880 34998 ft 531 kts 90°
2026-04-26 12:05 69.45584 96.32750 34999 ft 530 kts 90°
2026-04-26 12:06 69.45363 96.53730 35007 ft 531 kts 91°
2026-04-26 12:06 69.45116 96.74719 35009 ft 530 kts 91°
2026-04-26 12:07 69.44845 96.95690 35013 ft 530 kts 91°
2026-04-26 12:07 69.44548 97.16655 35013 ft 530 kts 91°
2026-04-26 12:08 69.44227 97.37610 35009 ft 530 kts 91°
2026-04-26 12:08 69.43880 97.58560 35017 ft 530 kts 91°
2026-04-26 12:09 69.43507 97.79505 35024 ft 529 kts 92°
2026-04-26 12:09 69.43111 98.00401 35024 ft 529 kts 92°
2026-04-26 12:10 69.42690 98.21257 35027 ft 528 kts 92°
2026-04-26 12:10 69.42248 98.41965 35034 ft 527 kts 92°
2026-04-26 12:11 69.41775 98.62892 35038 ft 527 kts 92°
2026-04-26 12:11 69.41285 98.83504 35034 ft 527 kts 92°
2026-04-26 12:12 69.40766 99.04272 35049 ft 526 kts 92°
2026-04-26 12:12 69.40225 99.24976 35045 ft 526 kts 93°
2026-04-26 12:13 69.39662 99.45666 35049 ft 525 kts 93°
2026-04-26 12:13 69.39066 99.66332 35055 ft 525 kts 93°
2026-04-26 12:14 69.38441 99.86985 35053 ft 525 kts 94°
2026-04-26 12:14 69.37796 100.07595 35054 ft 524 kts 94°
2026-04-26 12:15 69.37128 100.28191 35060 ft 524 kts 94°
2026-04-26 12:15 69.36435 100.48796 35064 ft 524 kts 94°
2026-04-26 12:16 69.35723 100.69226 35061 ft 524 kts 94°
2026-04-26 12:16 69.34979 100.89893 35066 ft 524 kts 94°
2026-04-26 12:17 69.34220 101.10276 35075 ft 523 kts 95°
2026-04-26 12:17 69.33433 101.30761 35072 ft 523 kts 95°
2026-04-26 12:18 69.32625 101.51236 35084 ft 523 kts 95°
2026-04-26 12:18 69.31802 101.71679 35077 ft 523 kts 95°
2026-04-26 12:19 69.30970 101.92090 35079 ft 522 kts 95°
2026-04-26 12:19 69.30115 102.12468 35082 ft 522 kts 95°
2026-04-26 12:20 69.29234 102.32824 35092 ft 522 kts 95°
2026-04-26 12:20 69.28328 102.53188 35089 ft 522 kts 96°
2026-04-26 12:21 69.27399 102.73512 35085 ft 522 kts 96°
2026-04-26 12:21 69.26449 102.93804 35082 ft 521 kts 96°
2026-04-26 12:22 69.25483 103.13943 35093 ft 521 kts 96°
2026-04-26 12:22 69.24452 103.34317 35091 ft 521 kts 97°
2026-04-26 12:23 69.23401 103.54364 35094 ft 521 kts 97°
2026-04-26 12:23 69.22324 103.74541 35093 ft 520 kts 97°
2026-04-26 12:24 69.21221 103.94815 35097 ft 520 kts 97°
2026-04-26 12:24 69.20110 104.14810 35098 ft 520 kts 97°
2026-04-26 12:25 69.18391 104.44926 35101 ft 520 kts 97°
2026-04-26 12:25 69.17215 104.64979 35103 ft 520 kts 97°
2026-04-26 12:26 69.16017 104.84982 35102 ft 520 kts 98°
2026-04-26 12:26 69.14795 105.04980 35108 ft 519 kts 98°
2026-04-26 12:27 69.13550 105.24948 35106 ft 519 kts 98°
2026-04-26 12:27 69.12283 105.44876 35113 ft 519 kts 98°
2026-04-26 12:28 69.10995 105.64763 35116 ft 519 kts 98°
2026-04-26 12:28 69.09683 105.84631 35111 ft 518 kts 98°
2026-04-26 12:29 69.08358 106.04337 35115 ft 518 kts 99°
2026-04-26 12:30 69.06541 106.30808 35119 ft 518 kts 99°
2026-04-26 12:30 69.05160 106.50559 35126 ft 518 kts 99°
2026-04-26 12:31 69.02816 106.83322 35125 ft 517 kts 99°
2026-04-26 12:31 69.01383 107.02994 35128 ft 517 kts 99°
2026-04-26 12:32 69.00166 107.19457 35131 ft 517 kts 100°
2026-04-26 12:33 68.97949 107.48847 35134 ft 517 kts 100°
2026-04-26 12:33 68.96444 107.68393 35136 ft 516 kts 100°
2026-04-26 12:34 68.94927 107.87789 35141 ft 516 kts 101°
2026-04-26 12:34 68.93378 108.07271 35138 ft 516 kts 101°
2026-04-26 12:35 68.91807 108.26727 35143 ft 516 kts 101°
2026-04-26 12:35 68.90217 108.46128 35143 ft 515 kts 101°
2026-04-26 12:36 68.88604 108.65500 35143 ft 515 kts 101°
2026-04-26 12:36 68.86970 108.84835 35146 ft 515 kts 102°
2026-04-26 12:37 68.85315 109.04133 35141 ft 515 kts 102°
2026-04-26 12:37 68.83639 109.23390 35143 ft 515 kts 102°
2026-04-26 12:38 68.81941 109.42629 35145 ft 515 kts 102°
2026-04-26 12:38 68.80221 109.61832 35146 ft 515 kts 102°
2026-04-26 12:39 68.78480 109.81005 35146 ft 514 kts 102°
2026-04-26 12:39 68.76719 110.00128 35147 ft 514 kts 103°
2026-04-26 12:40 68.74934 110.19237 35140 ft 514 kts 103°
2026-04-26 12:40 68.73131 110.38286 35148 ft 514 kts 103°
2026-04-26 12:41 68.71307 110.57303 35140 ft 514 kts 103°
2026-04-26 12:41 68.69473 110.76174 35150 ft 513 kts 103°
2026-04-26 12:42 68.67609 110.95106 35150 ft 513 kts 104°
2026-04-26 12:42 68.65724 111.13999 35149 ft 513 kts 104°
2026-04-26 12:43 68.63819 111.32858 35151 ft 513 kts 104°
2026-04-26 12:43 68.61890 111.51698 35155 ft 513 kts 104°
2026-04-26 12:44 68.59942 111.70499 35143 ft 513 kts 104°
2026-04-26 12:44 68.57974 111.89256 35145 ft 513 kts 104°
2026-04-26 12:45 68.55985 112.07988 35141 ft 513 kts 105°
2026-04-26 12:45 68.53988 112.26577 35148 ft 513 kts 105°
2026-04-26 12:46 68.51962 112.45238 35146 ft 513 kts 105°
2026-04-26 12:46 68.49821 112.63816 35149 ft 513 kts 107°
2026-04-26 12:47 68.47584 112.82262 35150 ft 513 kts 107°
2026-04-26 12:47 68.45337 113.00713 35144 ft 513 kts 107°
2026-04-26 12:48 68.43088 113.19126 35138 ft 513 kts 107°
2026-04-26 12:48 68.40836 113.37397 35141 ft 513 kts 107°
2026-04-26 12:49 68.38552 113.55733 35146 ft 513 kts 108°
2026-04-26 12:49 68.36331 113.73441 35142 ft 513 kts 107°
2026-04-26 12:50 68.34049 113.91750 35141 ft 513 kts 107°
2026-04-26 12:50 68.31749 114.10036 35142 ft 513 kts 108°
2026-04-26 12:51 68.29427 114.28268 35143 ft 513 kts 108°
2026-04-26 12:51 68.27086 114.46457 35141 ft 513 kts 108°
2026-04-26 12:52 68.24726 114.64601 35139 ft 512 kts 108°
2026-04-26 12:52 68.22326 114.82697 35142 ft 512 kts 109°
2026-04-26 12:53 68.19904 115.00708 35139 ft 512 kts 109°
2026-04-26 12:53 68.17466 115.18695 35138 ft 512 kts 109°
2026-04-26 12:54 68.15027 115.36533 35142 ft 512 kts 109°
2026-04-26 12:54 68.12555 115.54437 35139 ft 512 kts 109°
2026-04-26 12:55 68.10062 115.72311 35140 ft 512 kts 110°
2026-04-26 12:55 68.07549 115.90151 35140 ft 512 kts 110°
2026-04-26 12:56 68.05018 116.07940 35140 ft 511 kts 110°
2026-04-26 12:56 68.02471 116.25672 35139 ft 511 kts 110°
2026-04-26 12:57 67.99904 116.43373 35134 ft 511 kts 111°
2026-04-26 12:57 67.97322 116.61005 35137 ft 511 kts 111°
2026-04-26 12:58 67.93428 116.87289 35138 ft 510 kts 111°
2026-04-26 12:58 67.90805 117.04814 35140 ft 510 kts 111°
2026-04-26 12:59 67.88152 117.22313 35134 ft 510 kts 112°
2026-04-26 12:59 67.85451 117.39677 35138 ft 510 kts 112°
2026-04-26 13:00 67.82718 117.57035 35130 ft 510 kts 112°
2026-04-26 13:00 67.79978 117.74332 35142 ft 510 kts 112°
2026-04-26 13:01 67.77227 117.91577 35141 ft 510 kts 112°
2026-04-26 13:01 67.74453 118.08805 35141 ft 510 kts 113°
2026-04-26 13:02 67.71663 118.25985 35142 ft 510 kts 113°
2026-04-26 13:02 67.68852 118.43137 35143 ft 509 kts 113°
2026-04-26 13:03 67.66032 118.60205 35142 ft 509 kts 113°
2026-04-26 13:03 67.63208 118.77158 35139 ft 509 kts 114°
2026-04-26 13:04 67.60406 118.94199 35141 ft 509 kts 113°
2026-04-26 13:04 67.57669 119.10999 35136 ft 509 kts 113°
2026-04-26 13:05 67.54870 119.28029 35148 ft 508 kts 113°
2026-04-26 13:05 67.52051 119.44966 35141 ft 508 kts 114°
2026-04-26 13:06 67.49215 119.61835 35140 ft 508 kts 114°
2026-04-26 13:06 67.46357 119.78691 35148 ft 507 kts 114°
2026-04-26 13:07 67.43489 119.95465 35143 ft 507 kts 114°
2026-04-26 13:07 67.40602 120.12211 35142 ft 507 kts 114°
2026-04-26 13:08 67.37701 120.28900 35138 ft 507 kts 115°
2026-04-26 13:08 67.34800 120.45444 35143 ft 506 kts 115°
2026-04-26 13:09 67.31862 120.62068 35141 ft 506 kts 115°
2026-04-26 13:09 67.28913 120.78614 35142 ft 506 kts 115°
2026-04-26 13:10 67.25946 120.95123 35146 ft 506 kts 115°
2026-04-26 13:10 67.22966 121.11573 35144 ft 505 kts 115°
2026-04-26 13:11 67.19968 121.27983 35144 ft 505 kts 116°
2026-04-26 13:11 67.16957 121.44337 35143 ft 505 kts 116°
2026-04-26 13:12 67.13932 121.60639 35144 ft 505 kts 116°
2026-04-26 13:12 67.10910 121.76794 35145 ft 504 kts 116°
2026-04-26 13:13 67.07853 121.93008 35148 ft 504 kts 116°
2026-04-26 13:13 67.04780 122.09176 35150 ft 504 kts 116°
2026-04-26 13:14 67.01695 122.25304 35148 ft 503 kts 117°
2026-04-26 13:14 66.98571 122.41301 35146 ft 503 kts 118°
2026-04-26 13:15 66.95293 122.57068 35152 ft 502 kts 119°
2026-04-26 13:15 66.92544 122.70122 35152 ft 502 kts 118°
2026-04-26 13:16 66.88712 122.88344 35152 ft 502 kts 118°
2026-04-26 13:16 66.85414 123.03970 35155 ft 501 kts 119°
2026-04-26 13:17 66.80455 123.27324 35155 ft 501 kts 117°
2026-04-26 13:18 66.77091 123.52312 35151 ft 501 kts 101°
2026-04-26 13:19 66.75139 123.78301 35160 ft 501 kts 101°
2026-04-26 13:19 66.73806 123.95624 35159 ft 501 kts 101°
2026-04-26 13:20 66.72663 124.09984 35161 ft 501 kts 102°
2026-04-26 13:20 66.71264 124.27206 35160 ft 500 kts 102°
2026-04-26 13:21 66.69602 124.47330 35160 ft 500 kts 102°
2026-04-26 13:21 66.68172 124.64388 35162 ft 500 kts 102°
2026-04-26 13:22 66.66714 124.81564 35164 ft 500 kts 103°
2026-04-26 13:22 66.65489 124.95809 35172 ft 500 kts 103°
2026-04-26 13:23 66.63998 125.12922 35166 ft 499 kts 103°
2026-04-26 13:23 66.62490 125.30000 35168 ft 500 kts 103°
2026-04-26 13:24 66.60963 125.47067 35177 ft 500 kts 103°
2026-04-26 13:24 66.59414 125.64144 35176 ft 500 kts 103°
2026-04-26 13:25 66.57851 125.81155 35176 ft 500 kts 103°
2026-04-26 13:25 66.56274 125.98097 35180 ft 500 kts 104°
2026-04-26 13:26 66.54672 126.15083 35188 ft 500 kts 104°
2026-04-26 13:26 66.53051 126.32062 35188 ft 500 kts 104°
2026-04-26 13:27 66.51413 126.48996 35185 ft 500 kts 104°
2026-04-26 13:27 66.49757 126.65917 35186 ft 499 kts 104°
2026-04-26 13:28 66.48085 126.82791 35186 ft 499 kts 104°
2026-04-26 13:28 66.46394 126.99635 35191 ft 499 kts 104°
2026-04-26 13:29 66.44689 127.16434 35202 ft 498 kts 105°
2026-04-26 13:29 66.42966 127.33197 35197 ft 498 kts 105°
2026-04-26 13:30 66.41226 127.49932 35184 ft 497 kts 105°
2026-04-26 13:30 66.39472 127.66614 35191 ft 497 kts 105°
2026-04-26 13:31 66.37701 127.83257 35196 ft 496 kts 105°
2026-04-26 13:31 66.35925 127.99762 35193 ft 496 kts 105°
2026-04-26 13:32 66.34121 128.16343 35204 ft 496 kts 105°
2026-04-26 13:32 66.32300 128.32896 35191 ft 496 kts 106°
2026-04-26 13:33 66.30460 128.49429 35194 ft 496 kts 106°
2026-04-26 13:33 66.28605 128.65927 35186 ft 496 kts 106°
2026-04-26 13:34 66.26732 128.82420 35181 ft 496 kts 106°
2026-04-26 13:34 66.24838 128.98873 35182 ft 495 kts 107°
2026-04-26 13:35 66.22506 129.14927 35185 ft 495 kts 111°
2026-04-26 13:35 66.20031 129.30828 35180 ft 495 kts 111°
2026-04-26 13:36 66.17599 129.46639 35176 ft 495 kts 111°
2026-04-26 13:36 66.15147 129.62523 35180 ft 494 kts 111°
2026-04-26 13:37 66.12681 129.78381 35181 ft 494 kts 111°
2026-04-26 13:37 66.10204 129.94186 35183 ft 494 kts 111°
2026-04-26 13:38 66.07711 130.09961 35181 ft 493 kts 111°
2026-04-26 13:38 66.05204 130.25688 35179 ft 493 kts 112°
2026-04-26 13:39 66.02681 130.41383 35179 ft 493 kts 112°
2026-04-26 13:39 66.00146 130.57024 35177 ft 493 kts 112°
2026-04-26 13:40 65.97598 130.72620 35178 ft 492 kts 112°
2026-04-26 13:40 65.95030 130.88206 35175 ft 492 kts 112°
2026-04-26 13:41 65.92451 131.03731 35175 ft 492 kts 112°
2026-04-26 13:41 65.89855 131.19238 35175 ft 492 kts 112°
2026-04-26 13:42 65.87242 131.34721 35167 ft 492 kts 113°
2026-04-26 13:42 65.84637 131.50037 35163 ft 492 kts 113°
2026-04-26 13:43 65.81998 131.65431 35160 ft 492 kts 113°
2026-04-26 13:43 65.79344 131.80790 35163 ft 491 kts 113°
2026-04-26 13:44 65.76676 131.96130 35160 ft 491 kts 113°
2026-04-26 13:44 65.73992 132.11414 35156 ft 491 kts 114°
2026-04-26 13:45 65.71293 132.26656 35153 ft 491 kts 114°
2026-04-26 13:45 65.68582 132.41868 35158 ft 491 kts 114°
2026-04-26 13:46 65.65853 132.57070 35156 ft 491 kts 114°
2026-04-26 13:46 65.63117 132.72204 35159 ft 491 kts 114°
2026-04-26 13:47 65.60361 132.87326 35159 ft 491 kts 114°
2026-04-26 13:47 65.57594 133.02396 35159 ft 491 kts 114°
2026-04-26 13:48 65.54812 133.17436 35155 ft 490 kts 114°
2026-04-26 13:48 65.52012 133.32461 35165 ft 490 kts 114°
2026-04-26 13:49 65.49216 133.47349 35163 ft 490 kts 115°
2026-04-26 13:49 65.46391 133.62285 35161 ft 490 kts 115°
2026-04-26 13:50 65.43554 133.77174 35162 ft 490 kts 115°
2026-04-26 13:50 65.40704 133.92024 35165 ft 490 kts 115°
2026-04-26 13:51 65.37835 134.06865 35167 ft 490 kts 115°
2026-04-26 13:51 65.34955 134.21659 35174 ft 490 kts 115°
2026-04-26 13:52 65.32058 134.36427 35179 ft 490 kts 115°
2026-04-26 13:52 65.29150 134.51153 35183 ft 489 kts 115°
2026-04-26 13:53 65.26231 134.65845 35190 ft 489 kts 116°
2026-04-26 13:53 65.23285 134.80495 35201 ft 489 kts 116°
2026-04-26 13:54 65.20319 134.95097 35198 ft 489 kts 116°
2026-04-26 13:54 65.17343 135.09666 35202 ft 489 kts 116°
2026-04-26 13:55 65.13365 135.29017 35194 ft 489 kts 116°
2026-04-26 13:56 65.08363 135.53091 35193 ft 489 kts 116°
2026-04-26 13:56 65.05342 135.67536 35190 ft 489 kts 116°
2026-04-26 13:57 65.02308 135.81949 35184 ft 489 kts 116°
2026-04-26 13:57 64.99260 135.96335 35182 ft 489 kts 117°
2026-04-26 13:58 64.96196 136.10694 35175 ft 489 kts 117°
2026-04-26 13:58 64.93122 136.25005 35173 ft 489 kts 117°
2026-04-26 13:59 64.90032 136.39290 35169 ft 489 kts 117°
2026-04-26 13:59 64.86930 136.53541 35170 ft 489 kts 117°
2026-04-26 14:00 64.80708 136.81853 35169 ft 489 kts 117°
2026-04-26 14:01 64.77545 136.96091 35173 ft 489 kts 117°
2026-04-26 14:01 64.74414 137.10102 35168 ft 489 kts 117°
2026-04-26 14:02 64.71312 137.24429 35253 ft 492 kts 116°
2026-04-26 14:02 64.69827 137.31515 35508 ft 492 kts 115°
2026-04-26 14:02 64.68438 137.38138 35784 ft 491 kts 115°
2026-04-26 14:02 64.66930 137.45290 36086 ft 490 kts 116°
2026-04-26 14:03 64.65417 137.52412 36361 ft 490 kts 116°
2026-04-26 14:03 64.63895 137.59532 36602 ft 490 kts 116°
2026-04-26 14:03 64.62367 137.66643 36818 ft 491 kts 116°
2026-04-26 14:03 64.60830 137.73756 37034 ft 492 kts 116°
2026-04-26 14:04 64.59281 137.80895 37092 ft 494 kts 116°
2026-04-26 14:04 64.56172 137.95171 37152 ft 494 kts 116°
2026-04-26 14:05 64.53070 138.09337 37149 ft 491 kts 116°
2026-04-26 14:05 64.49964 138.23427 37155 ft 489 kts 116°
2026-04-26 14:06 64.46856 138.37441 37158 ft 488 kts 116°
2026-04-26 14:06 64.43760 138.51336 37167 ft 488 kts 116°
2026-04-26 14:07 64.40629 138.65303 37174 ft 489 kts 116°
2026-04-26 14:07 64.37479 138.79267 37185 ft 490 kts 116°
2026-04-26 14:08 64.34313 138.93206 37195 ft 491 kts 116°
2026-04-26 14:08 64.31122 139.07168 37208 ft 492 kts 116°
2026-04-26 14:09 64.27915 139.21108 37218 ft 493 kts 116°
2026-04-26 14:09 64.24692 139.35029 37240 ft 493 kts 116°
2026-04-26 14:10 64.21455 139.48915 37260 ft 493 kts 117°
2026-04-26 14:10 64.18756 139.60433 37238 ft 493 kts 117°
2026-04-26 14:11 64.13861 139.81158 37256 ft 493 kts 117°
2026-04-26 14:11 64.10585 139.94922 37263 ft 492 kts 117°
2026-04-26 14:12 64.07302 140.08628 37272 ft 492 kts 117°
2026-04-26 14:12 64.04002 140.22320 37289 ft 491 kts 117°
2026-04-26 14:13 63.99034 140.42776 37276 ft 491 kts 117°
2026-04-26 14:14 63.95708 140.56371 37265 ft 491 kts 117°
2026-04-26 14:14 63.92369 140.69932 37252 ft 492 kts 117°
2026-04-26 14:15 63.88988 140.83445 37238 ft 492 kts 118°
2026-04-26 14:15 63.85590 140.96902 37235 ft 492 kts 118°
2026-04-26 14:16 63.82190 141.10332 37221 ft 492 kts 118°
2026-04-26 14:16 63.78781 141.23764 37212 ft 492 kts 118°
2026-04-26 14:17 63.75392 141.37089 37216 ft 492 kts 118°
2026-04-26 14:17 63.71971 141.50465 37205 ft 492 kts 118°
2026-04-26 14:18 63.68535 141.63813 37200 ft 492 kts 118°
2026-04-26 14:18 63.65084 141.77131 37195 ft 492 kts 118°
2026-04-26 14:19 63.61622 141.90415 37197 ft 492 kts 118°
2026-04-26 14:19 63.58152 142.03652 37201 ft 492 kts 118°
2026-04-26 14:20 63.54668 142.16866 37193 ft 492 kts 118°
2026-04-26 14:20 63.51168 142.30057 37189 ft 492 kts 118°
2026-04-26 14:21 63.47659 142.43204 37190 ft 492 kts 118°
2026-04-26 14:21 63.44138 142.56322 37182 ft 492 kts 118°
2026-04-26 14:22 63.40604 142.69414 37186 ft 492 kts 119°
2026-04-26 14:22 63.37058 142.82471 37180 ft 492 kts 119°
2026-04-26 14:23 63.33504 142.95484 37177 ft 492 kts 119°
2026-04-26 14:23 63.29959 143.08400 37178 ft 492 kts 119°
2026-04-26 14:24 63.26305 143.21264 37179 ft 493 kts 123°
2026-04-26 14:24 63.21968 143.33083 37188 ft 494 kts 128°
2026-04-26 14:25 63.17504 143.44686 37182 ft 495 kts 128°
2026-04-26 14:25 63.13055 143.56296 37183 ft 495 kts 128°
2026-04-26 14:26 63.08614 143.67920 37181 ft 495 kts 128°
2026-04-26 14:26 63.04171 143.79511 37176 ft 495 kts 128°
2026-04-26 14:27 62.99711 143.91088 37177 ft 495 kts 128°
2026-04-26 14:27 62.95247 144.02608 37182 ft 495 kts 128°
2026-04-26 14:28 62.90770 144.14102 37171 ft 495 kts 128°
2026-04-26 14:28 62.86288 144.25547 37179 ft 495 kts 128°
2026-04-26 14:29 62.81793 144.36970 37174 ft 495 kts 128°
2026-04-26 14:29 62.77293 144.48344 37181 ft 494 kts 129°
2026-04-26 14:30 62.72788 144.59678 37185 ft 494 kts 129°
2026-04-26 14:30 62.68268 144.70989 37186 ft 494 kts 129°
2026-04-26 14:31 62.63747 144.82246 37185 ft 494 kts 129°
2026-04-26 14:31 62.59241 144.93411 37185 ft 494 kts 129°
2026-04-26 14:32 62.54697 145.04617 37185 ft 494 kts 129°
2026-04-26 14:32 62.50152 145.15771 37189 ft 494 kts 129°
2026-04-26 14:33 62.45583 145.26876 37193 ft 494 kts 129°
2026-04-26 14:33 62.41001 145.37933 37194 ft 494 kts 129°
2026-04-26 14:34 62.36409 145.48975 37178 ft 494 kts 130°
2026-04-26 14:34 62.31815 145.59968 37205 ft 494 kts 130°
2026-04-26 14:35 62.27215 145.70929 37210 ft 494 kts 130°
2026-04-26 14:35 62.22599 145.81870 37192 ft 494 kts 130°
2026-04-26 14:36 62.17983 145.92767 37203 ft 494 kts 130°
2026-04-26 14:36 62.13354 146.03637 37199 ft 494 kts 130°
2026-04-26 14:37 62.08721 146.14484 37201 ft 494 kts 130°
2026-04-26 14:37 62.04084 146.25299 37195 ft 494 kts 130°
2026-04-26 14:38 61.99458 146.36037 37204 ft 495 kts 130°
2026-04-26 14:38 61.94798 146.46803 37198 ft 495 kts 130°
2026-04-26 14:39 61.90122 146.57550 37195 ft 495 kts 131°
2026-04-26 14:39 61.85445 146.68249 37195 ft 495 kts 131°
2026-04-26 14:40 61.80756 146.78922 37201 ft 495 kts 131°
2026-04-26 14:40 61.76059 146.89563 37205 ft 495 kts 131°
2026-04-26 14:41 61.71348 147.00186 37198 ft 495 kts 131°
2026-04-26 14:41 61.66637 147.10760 37207 ft 495 kts 131°
2026-04-26 14:42 61.61908 147.21321 37200 ft 496 kts 131°
2026-04-26 14:42 61.57167 147.31856 37198 ft 495 kts 131°
2026-04-26 14:43 61.52423 147.42351 37200 ft 495 kts 131°
2026-04-26 14:43 61.47673 147.52810 37195 ft 496 kts 132°
2026-04-26 14:44 61.42913 147.63240 37196 ft 496 kts 132°
2026-04-26 14:44 61.38147 147.73640 37190 ft 496 kts 132°
2026-04-26 14:45 61.33373 147.84010 37194 ft 496 kts 132°
2026-04-26 14:45 61.28585 147.94333 37189 ft 496 kts 132°
2026-04-26 14:46 61.23775 148.04612 37192 ft 496 kts 133°
2026-04-26 14:46 61.18987 148.14804 37187 ft 497 kts 133°
2026-04-26 14:47 61.14156 148.25052 37182 ft 497 kts 133°
2026-04-26 14:47 61.09314 148.35273 37183 ft 497 kts 133°
2026-04-26 14:48 61.04468 148.45460 37182 ft 497 kts 133°
2026-04-26 14:48 60.99610 148.55622 37168 ft 498 kts 133°
2026-04-26 14:49 60.94741 148.65759 37161 ft 497 kts 133°
2026-04-26 14:49 60.89868 148.75860 37172 ft 497 kts 133°
2026-04-26 14:50 60.84993 148.85921 37164 ft 497 kts 133°
2026-04-26 14:50 60.80108 148.95960 37145 ft 497 kts 133°
2026-04-26 14:51 60.75216 149.05968 37141 ft 497 kts 133°
2026-04-26 14:51 60.70325 149.15964 37154 ft 497 kts 134°
2026-04-26 14:52 60.65429 149.25939 37131 ft 497 kts 134°
2026-04-26 14:52 60.60559 149.35815 37135 ft 497 kts 134°
2026-04-26 14:53 60.55648 149.45726 37132 ft 497 kts 134°
2026-04-26 14:53 60.50722 149.55623 37134 ft 498 kts 134°
2026-04-26 14:54 60.45794 149.65478 37130 ft 498 kts 134°
2026-04-26 14:54 60.40853 149.75318 37121 ft 498 kts 134°
2026-04-26 14:55 60.35899 149.85144 37119 ft 499 kts 134°
2026-04-26 14:55 60.30927 149.94910 37110 ft 499 kts 135°
2026-04-26 14:56 60.25925 150.04621 37109 ft 499 kts 135°
2026-04-26 14:56 60.20939 150.14343 37102 ft 499 kts 134°
2026-04-26 14:57 60.15970 150.24097 37094 ft 499 kts 134°
2026-04-26 14:57 60.11831 150.32173 37095 ft 499 kts 135°
2026-04-26 14:58 60.06831 150.41820 37081 ft 499 kts 135°
2026-04-26 14:58 60.01811 150.51418 37077 ft 499 kts 135°
2026-04-26 14:59 59.96787 150.61004 37073 ft 499 kts 135°
2026-04-26 14:59 59.91749 150.70545 37077 ft 499 kts 137°
2026-04-26 15:00 59.86246 150.79003 37076 ft 500 kts 144°
2026-04-26 15:00 59.80537 150.86957 37080 ft 501 kts 144°
2026-04-26 15:01 59.74883 150.94903 37074 ft 501 kts 143°
2026-04-26 15:01 59.69196 151.02939 37085 ft 502 kts 143°
2026-04-26 15:02 59.63468 151.11003 37083 ft 502 kts 143°
2026-04-26 15:02 59.57767 151.18850 37072 ft 503 kts 144°
2026-04-26 15:03 59.51988 151.26604 37073 ft 502 kts 145°
2026-04-26 15:03 59.46207 151.34351 37078 ft 502 kts 145°
2026-04-26 15:04 59.40441 151.42076 37084 ft 502 kts 145°
2026-04-26 15:04 59.34674 151.49777 37087 ft 501 kts 145°
2026-04-26 15:05 59.28902 151.57457 37088 ft 501 kts 145°
2026-04-26 15:05 59.23147 151.65137 37087 ft 501 kts 145°
2026-04-26 15:06 59.17378 151.72815 37088 ft 502 kts 145°
2026-04-26 15:06 59.11602 151.80464 37090 ft 502 kts 145°
2026-04-26 15:07 59.02934 151.91923 37083 ft 503 kts 145°
2026-04-26 15:07 58.97189 151.99524 37090 ft 503 kts 145°
2026-04-26 15:08 58.91402 152.07148 37083 ft 504 kts 145°
2026-04-26 15:08 58.85598 152.14754 37083 ft 503 kts 145°
2026-04-26 15:09 58.79800 152.22326 37087 ft 503 kts 145°
2026-04-26 15:09 58.73988 152.29884 37079 ft 503 kts 145°
2026-04-26 15:10 58.69155 152.36124 37080 ft 503 kts 146°
2026-04-26 15:10 58.62340 152.44873 37076 ft 504 kts 146°
2026-04-26 15:11 58.56512 152.52345 37078 ft 504 kts 145°
2026-04-26 15:11 58.50781 152.60054 37072 ft 504 kts 144°
2026-04-26 15:12 58.45123 152.67798 37075 ft 504 kts 144°
2026-04-26 15:12 58.39399 152.75544 37077 ft 504 kts 144°
2026-04-26 15:13 58.33656 152.83243 37076 ft 504 kts 144°
2026-04-26 15:13 58.27915 152.90914 37078 ft 505 kts 144°
2026-04-26 15:14 58.22161 152.98596 37082 ft 505 kts 144°
2026-04-26 15:14 58.16405 153.06240 37081 ft 506 kts 145°
2026-04-26 15:15 58.10528 153.13603 37084 ft 506 kts 146°
2026-04-26 15:15 58.04634 153.20879 37081 ft 506 kts 146°
2026-04-26 15:16 57.98753 153.28171 37085 ft 506 kts 146°
2026-04-26 15:16 57.92864 153.35476 37085 ft 506 kts 146°
2026-04-26 15:17 57.87972 153.41523 37085 ft 507 kts 146°
2026-04-26 15:17 57.81124 153.49951 37087 ft 507 kts 146°
2026-04-26 15:18 57.75226 153.57186 37086 ft 507 kts 146°
2026-04-26 15:18 57.69326 153.64414 37084 ft 507 kts 146°
2026-04-26 15:19 57.63421 153.71626 37086 ft 507 kts 147°
2026-04-26 15:19 57.57516 153.78806 37085 ft 507 kts 147°
2026-04-26 15:20 57.51604 153.85967 37087 ft 507 kts 147°
2026-04-26 15:20 57.45685 153.93107 37086 ft 507 kts 147°
2026-04-26 15:21 57.39756 154.00232 37084 ft 507 kts 147°
2026-04-26 15:21 57.33823 154.07334 37084 ft 507 kts 147°
2026-04-26 15:22 57.27885 154.14416 37086 ft 508 kts 147°
2026-04-26 15:22 57.21948 154.21471 37089 ft 508 kts 147°
2026-04-26 15:23 57.15985 154.28485 37085 ft 508 kts 148°
2026-04-26 15:23 57.09997 154.35402 37086 ft 508 kts 148°
2026-04-26 15:24 57.04003 154.42294 37084 ft 508 kts 148°
2026-04-26 15:24 56.98045 154.49135 37081 ft 508 kts 148°
2026-04-26 15:25 56.93019 154.54894 37083 ft 509 kts 148°
2026-04-26 15:25 56.86047 154.62851 37079 ft 509 kts 148°
2026-04-26 15:26 56.80039 154.69680 37082 ft 509 kts 148°
2026-04-26 15:26 56.74016 154.76499 37081 ft 509 kts 148°
2026-04-26 15:27 56.67989 154.83295 37078 ft 509 kts 148°
2026-04-26 15:27 56.61965 154.90063 37078 ft 509 kts 148°
2026-04-26 15:28 56.55933 154.96815 37079 ft 510 kts 148°
2026-04-26 15:28 56.49893 155.03549 37075 ft 510 kts 149°
2026-04-26 15:29 56.43855 155.10256 37076 ft 510 kts 149°
2026-04-26 15:30 56.31746 155.23632 37072 ft 510 kts 149°
2026-04-26 15:30 56.25683 155.30292 37074 ft 510 kts 149°
2026-04-26 15:31 56.16589 155.40244 37073 ft 511 kts 149°
2026-04-26 15:32 56.09526 155.48078 37076 ft 511 kts 148°
2026-04-26 15:32 56.01483 155.57009 37069 ft 511 kts 149°
2026-04-26 15:33 55.95426 155.63689 37073 ft 511 kts 149°
2026-04-26 15:33 55.89367 155.70339 37076 ft 512 kts 149°
2026-04-26 15:34 55.83304 155.76968 37070 ft 512 kts 149°
2026-04-26 15:34 55.77226 155.83590 37070 ft 512 kts 149°
2026-04-26 15:35 55.71188 155.90145 37072 ft 512 kts 149°
2026-04-26 15:35 55.65104 155.96727 37070 ft 513 kts 149°
2026-04-26 15:36 55.59008 156.03296 37073 ft 513 kts 149°
2026-04-26 15:36 55.52915 156.09842 37070 ft 513 kts 149°
2026-04-26 15:37 55.46810 156.16378 37068 ft 513 kts 149°
2026-04-26 15:37 55.40704 156.22913 37070 ft 513 kts 149°
2026-04-26 15:38 55.34584 156.29406 37069 ft 514 kts 150°
2026-04-26 15:38 55.28451 156.35854 37065 ft 514 kts 150°
2026-04-26 15:39 55.22307 156.42298 37065 ft 514 kts 150°
2026-04-26 15:39 55.18243 156.46555 37062 ft 514 kts 150°
2026-04-26 15:40 55.10014 156.55135 37063 ft 514 kts 150°
2026-04-26 15:40 55.03907 156.61474 37057 ft 515 kts 150°
2026-04-26 15:41 54.97751 156.67846 37062 ft 515 kts 150°
2026-04-26 15:41 54.91595 156.74221 37055 ft 515 kts 150°
2026-04-26 15:42 54.88020 156.77922 37058 ft 515 kts 150°
2026-04-26 15:45 54.85990 156.80018 37062 ft 515 kts 150°
2026-04-26 15:46 54.83835 156.82233 37057 ft 516 kts 150°
2026-04-26 15:50 54.79416 156.86744 37051 ft 516 kts 151°
2026-04-26 15:51 54.73227 156.93038 37057 ft 516 kts 151°
2026-04-26 15:51 54.67034 156.99326 37055 ft 516 kts 151°
2026-04-26 15:52 54.60842 157.05596 37059 ft 516 kts 151°
2026-04-26 15:52 54.54642 157.11863 37054 ft 516 kts 151°
2026-04-26 15:53 54.48440 157.18117 37049 ft 517 kts 151°
2026-04-26 15:53 54.45332 157.21244 36946 ft 519 kts 151°
2026-04-26 15:53 54.42220 157.24365 36163 ft 528 kts 151°
2026-04-26 15:53 54.39054 157.27536 35445 ft 527 kts 151°
2026-04-26 15:54 54.35887 157.30705 34628 ft 528 kts 152°
2026-04-26 15:54 54.32704 157.33883 33715 ft 530 kts 152°
2026-04-26 15:54 54.29513 157.37062 32721 ft 530 kts 152°
2026-04-26 15:54 54.26361 157.40199 31825 ft 521 kts 152°
2026-04-26 15:55 54.23226 157.43313 31025 ft 519 kts 152°
2026-04-26 15:55 54.20100 157.46411 30197 ft 518 kts 152°
2026-04-26 15:55 54.17008 157.49473 29539 ft 511 kts 152°
2026-04-26 15:55 54.13944 157.52501 28905 ft 503 kts 152°
2026-04-26 15:56 54.10944 157.55460 28322 ft 495 kts 152°
2026-04-26 15:56 54.07979 157.58384 27748 ft 488 kts 152°
2026-04-26 15:56 54.05060 157.61266 27192 ft 482 kts 152°
2026-04-26 15:56 54.02183 157.64105 26626 ft 476 kts 152°
2026-04-26 15:57 53.99333 157.66913 26068 ft 471 kts 152°
2026-04-26 15:57 53.96510 157.69689 25506 ft 466 kts 152°
2026-04-26 15:57 53.93748 157.72401 24966 ft 462 kts 152°
2026-04-26 15:57 53.91886 157.74228 24601 ft 459 kts 152°
2026-04-26 15:58 53.88861 157.77189 24015 ft 455 kts 152°
2026-04-26 15:58 53.86126 157.79862 23462 ft 451 kts 153°
2026-04-26 15:58 53.83422 157.82502 22837 ft 447 kts 152°
2026-04-26 15:58 53.80740 157.85116 22287 ft 442 kts 152°
2026-04-26 15:59 53.78088 157.87696 21769 ft 437 kts 152°
2026-04-26 15:59 53.75456 157.90236 21239 ft 433 kts 153°
2026-04-26 15:59 53.72850 157.92736 20705 ft 429 kts 153°
2026-04-26 15:59 53.70297 157.95182 20191 ft 426 kts 153°
2026-04-26 16:00 53.67727 157.97644 19666 ft 423 kts 152°
2026-04-26 16:00 53.65181 158.00075 19143 ft 419 kts 153°
2026-04-26 16:00 53.62636 158.02444 18637 ft 416 kts 153°
2026-04-26 16:00 53.60103 158.04766 18109 ft 413 kts 153°
2026-04-26 16:01 53.57589 158.07057 17538 ft 410 kts 153°
2026-04-26 16:01 53.55095 158.09330 17040 ft 405 kts 153°
2026-04-26 16:01 53.52627 158.11582 16524 ft 401 kts 153°
2026-04-26 16:01 53.50184 158.13811 16012 ft 398 kts 153°
2026-04-26 16:02 53.47765 158.16018 15506 ft 394 kts 153°
2026-04-26 16:02 53.45361 158.18210 14997 ft 391 kts 153°
2026-04-26 16:02 53.42976 158.20382 14501 ft 388 kts 152°
2026-04-26 16:02 53.41409 158.21809 14171 ft 386 kts 152°
2026-04-26 16:03 53.38269 158.24662 13477 ft 383 kts 152°
2026-04-26 16:03 53.35943 158.26775 12957 ft 379 kts 152°
2026-04-26 16:03 53.33662 158.28844 12465 ft 375 kts 152°
2026-04-26 16:03 53.31371 158.30919 11973 ft 372 kts 152°
2026-04-26 16:04 53.29101 158.32968 11479 ft 369 kts 152°
2026-04-26 16:04 53.26849 158.35002 11010 ft 366 kts 152°
2026-04-26 16:04 53.24639 158.36997 10802 ft 355 kts 152°
2026-04-26 16:04 53.22502 158.38924 10640 ft 344 kts 153°
2026-04-26 16:05 53.20426 158.40794 10497 ft 333 kts 153°
2026-04-26 16:05 53.18420 158.42597 10356 ft 322 kts 153°
2026-04-26 16:05 53.16475 158.44347 10224 ft 313 kts 153°
2026-04-26 16:05 53.14590 158.46038 10094 ft 303 kts 153°
2026-04-26 16:06 53.12759 158.47678 9980 ft 294 kts 153°
2026-04-26 16:06 53.11137 158.49615 9723 ft 286 kts 129°
2026-04-26 16:06 53.10069 158.52324 9513 ft 276 kts 121°
2026-04-26 16:06 53.09087 158.55030 9296 ft 271 kts 121°
2026-04-26 16:07 53.08112 158.57688 9034 ft 267 kts 121°
2026-04-26 16:07 53.07140 158.60314 8728 ft 266 kts 122°
2026-04-26 16:07 53.06170 158.62927 8417 ft 265 kts 122°
2026-04-26 16:07 53.05202 158.65518 8134 ft 263 kts 122°
2026-04-26 16:08 53.04240 158.68092 7850 ft 262 kts 122°
2026-04-26 16:08 53.03600 158.69772 7627 ft 258 kts 127°
2026-04-26 16:08 53.01724 158.72026 7195 ft 248 kts 169°
2026-04-26 16:08 53.00080 158.72044 7020 ft 228 kts 197°
2026-04-26 16:09 52.98708 158.70963 6589 ft 215 kts 218°
2026-04-26 16:09 52.97639 158.69293 6048 ft 209 kts 237°
2026-04-26 16:09 52.97007 158.67112 5341 ft 211 kts 249°
2026-04-26 16:09 52.96456 158.64841 4710 ft 212 kts 250°
2026-04-26 16:10 52.96158 158.62506 4151 ft 200 kts 283°
2026-04-26 16:10 52.96738 158.60630 4057 ft 181 kts 319°
2026-04-26 16:10 52.97725 158.59359 3854 ft 179 kts 324°
2026-04-26 16:10 52.98748 158.58231 3595 ft 173 kts 329°
2026-04-26 16:11 52.99755 158.57264 3368 ft 165 kts 329°
2026-04-26 16:11 53.00744 158.56368 3161 ft 155 kts 333°
2026-04-26 16:11 53.01706 158.55618 2983 ft 152 kts 334°
2026-04-26 16:11 53.02679 158.54916 2802 ft 150 kts 335°
2026-04-26 16:12 53.03630 158.54251 2611 ft 144 kts 335°
2026-04-26 16:12 53.04529 158.53630 2448 ft 138 kts 335°
2026-04-26 16:12 53.06299 158.52404 2062 ft 138 kts 335°
2026-04-26 16:13 53.07191 158.51795 1839 ft 138 kts 334°
2026-04-26 16:13 53.08082 158.51178 1701 ft 140 kts 335°
2026-04-26 16:13 53.08995 158.50548 1469 ft 144 kts 335°
2026-04-26 16:13 53.09925 158.49904 1283 ft 146 kts 336°
2026-04-26 16:14 53.10867 158.49258 1015 ft 143 kts 337°
2026-04-26 16:14 53.11780 158.48626 848 ft 142 kts 337°
2026-04-26 16:14 53.13611 158.47364 545 ft 142 kts 338°
2026-04-26 16:15 53.14517 158.46733 375 ft 141 kts 338°
2026-04-26 16:15 53.15424 158.46109 207 ft 141 kts 339°
2026-04-26 16:15 53.16299 158.45505 127 ft 126 kts 337°
2026-04-26 16:16 53.17238 158.44855 132 ft 19 kts 338°
2026-04-26 16:16 53.17360 158.44770 128 ft 19 kts 337°
2026-04-26 16:16 53.17483 158.44683 133 ft 19 kts 337°
2026-04-26 16:16 53.17605 158.44598 127 ft 19 kts 337°
2026-04-26 16:17 53.17727 158.44514 128 ft 19 kts 337°
2026-04-26 16:17 53.17850 158.44429 126 ft 19 kts 337°
2026-04-26 16:17 53.17970 158.44345 125 ft 19 kts 337°
2026-04-26 16:17 53.18093 158.44261 125 ft 19 kts 338°
2026-04-26 16:18 53.18200 158.44188 126 ft 12 kts 338°
2026-04-26 16:18 53.18313 158.44085 125 ft 8 kts 301°
2026-04-26 16:19 53.18302 158.43910 124 ft 7 kts 247°
2026-04-26 16:19 53.18286 158.43849 125 ft 4 kts 248°
2026-04-26 16:19 53.18261 158.43742 123 ft 8 kts 249°
2026-04-26 16:20 53.18236 158.43635 122 ft 6 kts 249°
2026-04-26 16:20 53.18270 158.43549 124 ft 5 kts 321°
2026-04-26 16:20 53.18295 158.43513 123 ft 4 kts 316°
2026-04-26 16:21 53.18313 158.43474 124 ft 4 kts 297°
2026-04-26 16:21 53.18310 158.43430 126 ft 4 kts 240°
2026-04-26 16:21 53.18288 158.43394 125 ft 4 kts 218°
2026-04-26 16:21 53.18272 158.43376 127 ft 3 kts 214°
2026-04-26 16:22 53.18269 158.43373 122 ft 0 kts 214°